This is the latest recevied weather packets stored in our database for station/object IZ1UQG-N2. If no packets are shown the sender has not sent any weather packets the latest 1 day(s).
| Time | Temp. | Humidity | Pressure | Rain* | Wind** | Luminosity | Snow |
|---|---|---|---|---|---|---|---|
| 1836274682 | 17.78° C | 89% | 1024.6 hPa | 0 mm | 0.89 m/s, 280° | 0 W/m² | - |
| 1836274503 | 17.78° C | 89% | 1024.6 hPa | 0 mm | 0.89 m/s, 297° | 0 W/m² | - |
| 1836274472 | 17.78° C | 89% | 1024.5 hPa | 0 mm | 0.45 m/s, 270° | 0 W/m² | - |
| 1836274322 | 17.78° C | 89% | 1024.6 hPa | 0 mm | 0.89 m/s, 308° | 0 W/m² | - |
| 1836274293 | 17.78° C | 89% | 1024.5 hPa | 0 mm | 0.45 m/s, 270° | 0 W/m² | - |
| 1836274143 | 17.78° C | 89% | 1024.6 hPa | 0 mm | 0.89 m/s, 319° | 0 W/m² | - |
| 1836274113 | 17.78° C | 89% | 1024.6 hPa | 0 mm | 0.89 m/s, 274° | 0 W/m² | - |
| 1836273963 | 17.78° C | 89% | 1024.7 hPa | 0 mm | 1.34 m/s, 324° | 0 W/m² | - |
| 1778035490 | 11.67° C | 92% | 1008.6 hPa | 0 mm | 0.89 m/s, 336° | 0 W/m² | - |
| 1778035430 | 11.67° C | 92% | 1008.6 hPa | 0 mm | 0.89 m/s, 338° | 0 W/m² | - |
| 1778035370 | 11.67° C | 92% | 1008.6 hPa | 0 mm | 0.89 m/s, 339° | 0 W/m² | - |
| 1778035328 | 11.67° C | 92% | 1008.6 hPa | 0 mm | 0.89 m/s, 339° | 0 W/m² | - |
| 1778035310 | 11.67° C | 92% | 1008.6 hPa | 0 mm | 0.89 m/s, 343° | 0 W/m² | - |
| 1778035249 | 11.67° C | 92% | 1008.6 hPa | 0 mm | 0.89 m/s, 344° | 0 W/m² | - |
| 1778035189 | 11.67° C | 92% | 1008.7 hPa | 0 mm | 0.45 m/s, 347° | 0 W/m² | - |
| 1778035148 | 11.67° C | 92% | 1008.7 hPa | 0 mm | 0.45 m/s, 347° | 0 W/m² | - |
| 1778035130 | 11.67° C | 92% | 1008.7 hPa | 0 mm | 0.45 m/s, 349° | 0 W/m² | - |
| 1778035070 | 11.67° C | 92% | 1008.6 hPa | 0 mm | 0.45 m/s, 349° | 0 W/m² | - |
| 1778035010 | 11.67° C | 92% | 1008.6 hPa | 0 mm | 0.45 m/s, 348° | 0 W/m² | - |
| 1778034968 | 11.67° C | 92% | 1008.6 hPa | 0 mm | 0.45 m/s, 348° | 0 W/m² | - |
| 1778034950 | 11.67° C | 92% | 1008.6 hPa | 0 mm | 0.45 m/s, 349° | 0 W/m² | - |
| 1778034890 | 11.67° C | 92% | 1008.5 hPa | 0 mm | 0 m/s | 0 W/m² | - |
| 1778034830 | 11.67° C | 92% | 1008.5 hPa | 0 mm | 0 m/s | 0 W/m² | - |
| 1778034788 | 11.67° C | 92% | 1008.5 hPa | 0 mm | 0 m/s | 0 W/m² | - |
| 1778034770 | 11.67° C | 92% | 1008.6 hPa | 0 mm | 0 m/s | 0 W/m² | - |
* Rain latest hour (hover to see other rain measurements)
** Current wind speed in m/s (hover to see current wind gust speed)